Date String (YYYY-MM-DD hh:mm:ss) UTC,Instrument flags,Ambient pressure (hPa),Sample flow (lpm),Bypass flow (lpm),Sample temperature (°C),Ambient temperature (°C),ASC tube jacket temperature (°C),LED temperature (°C),Box temperature (°C),Sample RH (%),Span deviation,Mass concentration (μg/m³),Mass concentration (μg/m³),Mass concentration (μg/m³)
DateTimeUTC,F1_M11,P_M11,Q1_M11,Q2_M11,T1_M11,T2_M11,T3_M11,T4_M11,T5_M11,U1_M11,ZSPAN_M11,X0_M11,X2_M11,X1_M11
2022-09-30 11:00:00,,0826.7,4.99,0.00,30.5,28.9,00.0,39.3,32.3,15.9,0000.0,0006.36,0003.54,0003.26
2022-09-30 11:01:00,,0826.7,4.99,0.00,30.5,28.9,00.0,39.3,32.3,15.8,0000.0,0005.37,0003.56,0003.27
2022-09-30 11:02:00,,0826.8,5.00,0.00,30.4,28.9,00.0,39.3,32.3,15.9,0000.0,0006.80,0003.58,0003.27
2022-09-30 11:03:00,,0826.8,5.01,0.00,30.4,28.8,00.0,39.3,32.2,15.9,0000.0,0007.57,0003.59,0003.26
2022-09-30 11:04:00,,0826.8,5.00,0.00,30.4,28.7,00.0,39.3,32.2,15.9,0000.0,0007.55,0003.58,0003.25
2022-09-30 11:05:00,,0826.7,4.99,0.00,30.4,28.7,00.0,39.2,32.2,16.0,0000.0,0007.52,0003.56,0003.25
2022-09-30 11:06:00,,0826.7,5.00,0.00,30.4,28.7,00.0,39.2,32.2,16.0,0000.0,0007.53,0003.56,0003.25
2022-09-30 11:07:00,,0826.7,5.01,0.00,30.4,28.7,00.0,39.2,32.2,16.0,0000.0,0007.50,0003.56,0003.25
2022-09-30 11:08:00,,0826.6,5.01,0.00,30.4,28.8,00.0,39.2,32.2,16.0,0000.0,0007.51,0003.56,0003.25
2022-09-30 11:09:00,,0826.6,5.00,0.00,30.4,28.8,00.0,39.2,32.2,16.1,0000.0,0007.75,0003.57,0003.26
2022-09-30 11:10:00,,0826.7,4.99,0.00,30.4,28.7,00.0,39.2,32.2,16.2,0000.0,0007.87,0003.59,0003.27
2022-09-30 11:11:00,,0826.7,5.01,0.00,30.4,28.6,00.0,39.2,32.1,16.4,0000.0,0007.82,0003.60,0003.29
2022-09-30 11:12:00,,0826.7,5.00,0.00,30.4,28.7,00.0,39.2,32.1,16.3,0000.0,0007.81,0003.60,0003.29
2022-09-30 11:13:00,,0826.7,5.01,0.00,30.4,28.7,00.0,39.2,32.1,16.4,0000.0,0006.91,0003.61,0003.31
2022-09-30 11:14:00,,0826.6,5.00,0.00,30.4,28.6,00.0,39.2,32.1,16.6,0000.0,0006.09,0003.66,0003.34
2022-09-30 11:15:00,,0826.5,4.99,0.00,30.4,28.6,00.0,39.2,32.1,16.6,0000.0,0006.15,0003.70,0003.37
2022-09-30 11:16:00,,0826.6,5.00,0.00,30.3,28.6,00.0,39.2,32.1,16.7,0000.0,0006.26,0003.72,0003.39
2022-09-30 11:17:00,,0826.5,5.00,0.00,30.3,28.7,00.0,39.2,32.1,16.7,0000.0,0006.41,0003.75,0003.41
2022-09-30 11:18:00,,0826.5,4.99,0.00,30.3,28.7,00.0,39.2,32.1,16.8,0000.0,0006.47,0003.77,0003.42
2022-09-30 11:19:00,,0826.5,4.99,0.00,30.3,28.7,00.0,39.2,32.1,16.8,0000.0,0006.54,0003.80,0003.44
2022-09-30 11:20:00,,0826.5,5.01,0.00,30.3,28.7,00.0,39.2,32.2,16.8,0000.0,0006.33,0003.82,0003.46
2022-09-30 11:21:00,,0826.5,5.00,0.00,30.3,28.8,00.0,39.2,32.1,16.8,0000.0,0005.99,0003.83,0003.47
2022-09-30 11:22:00,,0826.5,4.99,0.00,30.4,28.8,00.0,39.2,32.1,16.8,0000.0,0007.40,0003.86,0003.47
2022-09-30 11:23:00,,0826.6,5.00,0.00,30.4,28.8,00.0,39.2,32.1,16.8,0000.0,0007.45,0003.88,0003.47
2022-09-30 11:24:00,,0826.5,5.01,0.00,30.3,28.7,00.0,39.2,32.1,16.8,0000.0,0007.53,0003.89,0003.47
2022-09-30 11:25:00,,0826.5,5.00,0.00,30.3,28.7,00.0,39.2,32.1,16.9,0000.0,0007.59,0003.91,0003.46
2022-09-30 11:26:00,,0826.6,4.98,0.00,30.3,28.7,00.0,39.1,32.1,16.9,0000.0,0007.66,0003.96,0003.46
2022-09-30 11:27:00,,0826.6,5.01,0.00,30.3,28.8,00.0,39.2,32.1,17.0,0000.0,0007.73,0003.99,0003.47
2022-09-30 11:28:00,,0826.6,5.00,0.00,30.3,28.7,00.0,39.2,32.1,16.9,0000.0,0008.20,0004.03,0003.47
2022-09-30 11:29:00,,0826.7,4.97,0.00,30.3,28.7,00.0,39.2,32.1,17.0,0000.0,0008.30,0004.05,0003.48
2022-09-30 11:30:00,,0826.7,5.01,0.00,30.3,28.7,00.0,39.1,32.1,17.0,0000.0,0008.77,0004.08,0003.48
2022-09-30 11:31:00,,0826.7,5.00,0.00,30.3,28.7,00.0,39.1,32.1,16.8,0000.0,0008.84,0004.06,0003.47
2022-09-30 11:32:00,,0826.7,5.00,0.00,30.3,28.7,00.0,39.1,32.1,16.6,0000.0,0008.74,0004.01,0003.44
2022-09-30 11:33:00,,0826.7,4.99,0.00,30.3,28.8,00.0,39.1,32.1,16.5,0000.0,0008.37,0003.97,0003.42
2022-09-30 11:34:00,,0826.7,4.99,0.00,30.3,28.8,00.0,39.1,32.1,16.5,0000.0,0008.56,0003.92,0003.40
2022-09-30 11:35:00,,0826.7,5.01,0.00,30.3,28.8,00.0,39.1,32.1,16.4,0000.0,0008.48,0003.88,0003.38
2022-09-30 11:36:00,,0826.6,5.01,0.00,30.3,28.8,00.0,39.1,32.1,16.4,0000.0,0008.35,0003.82,0003.37
2022-09-30 11:37:00,,0826.7,5.00,0.00,30.3,28.9,00.0,39.1,32.1,16.4,0000.0,0008.27,0003.74,0003.35
2022-09-30 11:38:00,,0826.6,5.00,0.00,30.4,28.9,00.0,39.1,32.2,16.5,0000.0,0008.27,0003.70,0003.33
2022-09-30 11:39:00,,0826.7,5.00,0.00,30.4,28.9,00.0,39.2,32.2,16.8,0000.0,0008.25,0003.64,0003.30
2022-09-30 11:40:00,,0826.7,5.00,0.00,30.4,28.9,00.0,39.2,32.2,16.8,0000.0,0008.21,0003.61,0003.29
2022-09-30 11:41:00,,0826.7,4.99,0.00,30.4,28.9,00.0,39.2,32.2,16.9,0000.0,0008.08,0003.62,0003.29
2022-09-30 11:42:00,,0826.7,5.00,0.00,30.4,28.8,00.0,39.2,32.2,17.0,0000.0,0007.75,0003.63,0003.29
2022-09-30 11:43:00,,0826.7,5.01,0.00,30.4,28.8,00.0,39.2,32.2,17.2,0000.0,0007.92,0003.68,0003.32
2022-09-30 11:44:00,,0826.7,5.01,0.00,30.4,28.8,00.0,39.2,32.2,17.1,0000.0,0008.06,0003.72,0003.35
2022-09-30 11:45:00,,0826.6,4.99,0.00,30.4,28.7,00.0,39.2,32.1,17.0,0000.0,0007.91,0003.78,0003.38
2022-09-30 11:46:00,,0826.6,5.00,0.00,30.4,28.7,00.0,39.2,32.1,17.0,0000.0,0007.92,0003.82,0003.41
2022-09-30 11:47:00,,0826.6,5.00,0.00,30.3,28.7,00.0,39.2,32.1,17.0,0000.0,0008.24,0003.89,0003.44
2022-09-30 11:48:00,,0826.6,5.00,0.00,30.3,28.7,00.0,39.2,32.1,17.1,0000.0,0008.84,0003.95,0003.48
2022-09-30 11:49:00,,0826.5,5.00,0.00,30.3,28.8,00.0,39.2,32.1,17.0,0000.0,0009.69,0003.99,0003.50
2022-09-30 11:50:00,,0826.5,5.00,0.00,30.3,28.8,00.0,39.2,32.1,17.0,0000.0,0009.49,0004.04,0003.54
2022-09-30 11:51:00,,0826.5,5.00,0.00,30.4,28.8,00.0,39.2,32.1,17.0,0000.0,0009.35,0004.06,0003.55
2022-09-30 11:52:00,,0826.5,5.00,0.00,30.4,28.9,00.0,39.2,32.2,17.0,0000.0,0009.42,0004.05,0003.56
2022-09-30 11:53:00,,0826.5,4.99,0.00,30.4,28.9,00.0,39.2,32.2,17.0,0000.0,0009.56,0004.08,0003.58
2022-09-30 11:54:00,,0826.6,5.01,0.00,30.4,28.9,00.0,39.2,32.2,16.9,0000.0,0009.51,0004.09,0003.58
2022-09-30 11:55:00,,0826.5,4.99,0.00,30.4,28.9,00.0,39.2,32.2,16.7,0000.0,0009.31,0004.12,0003.58
2022-09-30 11:56:00,,0826.4,5.00,0.00,30.4,28.9,00.0,39.2,32.2,16.7,0000.0,0009.08,0004.12,0003.57
2022-09-30 11:57:00,,0826.5,5.01,0.00,30.4,28.9,00.0,39.2,32.2,16.8,0000.0,0009.33,0004.12,0003.57
2022-09-30 11:58:00,,0826.4,5.00,0.00,30.4,29.0,00.0,39.2,32.2,16.8,0000.0,0009.53,0004.11,0003.57
2022-09-30 11:59:00,,0826.5,4.99,0.00,30.4,29.0,00.0,39.2,32.2,16.7,0000.0,0009.12,0004.09,0003.56
